Location: Bathsheba
(13.2167°N, 59.5167°W)
Time: 23:01:48
(UTC+00:00)

Cosmos 2298 Rocket - Pass Details

Date: 18 September 2020
Orbit: 776 x 783 km, 74.0° (Epoch: 20 October)

Event Time Altitude Azimuth Distance (km) Brightness Sun altitude
Rises 23:07:54 0° 196° (SSW) 3,256 7.4 -18.1°
Reaches altitude 10° 23:10:17 10° 198° (SSW) 2,330 6.6 -18.7°
Maximum altitude 23:15:35 75° 283° (WNW) 808 4.2 -20.0°
Drops below altitude 10° 23:20:53 10° 9° (N) 2,332 6.5 -21.3°
Sets 23:23:16 0° 11° (N) 3,260 7.2 -21.9°
